Location: Oroua River
(40.4333°S, 175.4333°E)
Time: 14:23:09
(UTC+00:00)

CZ-2C R/B - Pass Details

Date: 03 February 2023
Orbit: 666 x 783 km, 98.3° (Epoch: 22 March)

Event Time Altitude Azimuth Distance (km) Brightness Sun altitude
Exits shadow 15:29:51 41° 291° (WNW) 974 2.6 -19.7°
Maximum altitude 15:30:11 42° 279° (W) 965 2.6 -19.7°
Drops below altitude 10° 15:34:37 10° 207° (SSW) 2,142 5.0 -19.1°
Sets 15:37:00 0° 200° (SSW) 3,077 5.9 -18.7°
